User: anonymous   Login
Location: Newark
(50.1395°N, 5.5234°W)
Time: 07:42:49
(UTC+00:00)
Language:

XW-2F - Orbit

View from above orbital plane
View from above orbital plane
View from above satellite
View from above satellite

Ground track
Ground track

The orbit data is extracted from the following two-line orbital elements,

1 40910U 15049M   21130.78088881  .00001021  00000-0  52141-4 0  9999
2 40910  97.4726 136.4269 0012836 305.8067 227.7493 15.18927550312004
Epoch (UTC): 10 May 2021 18:44:28
Eccentricity: 0.0012836
inclination: 97.4726°
perigee height: 500 km
apogee height: 518 km
right ascension of ascending node: 136.4269°
argument of perigee: 305.8067°
revolutions per day: 15.18927550
mean anomaly at epoch: 227.7493°
orbit number at epoch: 31200

The dashed part of the orbit path shows where the satellite is in the earth's shadow,  

DLR